Vorticity
10 12 9 15 17 20 37 38 17 11 16 13 8 6 7 11 14 14 12 14 16 16 15 13 11 11 9 8 7 7 9 10 11 13 13 14 14 14 15 15 16 16
20 19 16 18 13 14 30 26 5 5 13 10 5 4 6 10 13 12 10 11 14 16 16 14 11 11 9 7 6 5 5 6 7 9 10 11 12 13 14 14 15 16
26 21 18 18 12 10 14 9 2 7 11 8 5 3 6 9 10 11 9 8 11 13 14 14 13 12 11 10 8 7 6 5 4 4 5 6 6 7 8 9 10 11
22 20 18 19 16 15 14 11 9 8 9 9 6 4 8 10 8 8 8 9 10 10 11 12 13 13 12 11 11 10 9 8 6 4 4 3 3 3 4 5 6 6
15 12 10 12 11 10 10 11 11 7 8 11 8 3 2 5 8 9 10 11 9 8 10 10 10 11 11 10 10 9 9 9 8 7 6 5 5 4 3 4 4 5
8 6 6 8 10 11 11 12 13 10 7 6 7 8 9 11 14 12 12 14 12 9 9 10 11 11 10 9 8 7 8 8 8 8 8 7 7 6 6 6 6 6
4 9 14 15 15 16 14 12 11 10 8 4 8 19 21 14 8 7 9 13 14 12 9 8 10 11 11 9 8 6 6 6 7 7 7 7 7 6 6 5 5 5
6 9 10 9 10 12 13 15 13 12 13 9 7 11 9 4 3 5 6 9 14 16 13 11 10 11 11 11 9 8 6 5 5 5 5 5 5 4 5 5 5 5
5 5 2 1 4 6 7 12 13 10 11 11 7 3 3 5 6 4 2 7 14 14 12 11 11 9 7 6 7 8 8 8 8 7 5 3 2 2 3 3 2 4
5 5 6 6 7 6 3 6 9 8 9 11 11 8 7 5 5 9 12 15 19 16 11 12 15 14 9 6 5 5 7 9 10 10 8 4 2 1 1 -0 0 3
10 8 7 7 7 6 5 6 11 13 9 6 6 8 9 7 10 15 11 5 8 10 10 12 10 6 6 8 9 9 11 11 11 11 10 8 5 2 1 3 5 7
11 9 9 11 11 7 6 7 8 9 6 4 6 8 10 9 8 7 1 -1 2 5 8 10 8 4 7 10 10 7 4 4 3 6 9 9 8 5 4 5 5 5
4 1 4 8 4 -3 -1 5 7 9 9 9 8 5 2 3 3 5 8 10 10 9 6 5 5 5 6 10 11 3 -1 2 4 7 11 11 9 6 5 4 3 5
-2 -4 -4 0 -1 -4 -3 1 5 9 9 6 4 2 3 7 8 7 8 9 11 10 8 8 9 9 9 14 12 3 5 8 5 7 13 16 14 11 6 4 3 4
1 2 0 0 1 3 4 3 5 8 7 6 4 2 6 10 8 7 12 15 12 9 11 14 14 12 14 16 10 6 7 -2 -9 -0 6 5 8 10 7 4 4 6
5 4 3 2 3 6 7 6 5 4 4 6 6 6 13 15 7 4 10 12 7 4 6 7 5 7 11 13 10 7 -1 -16 -13 7 12 4 3 4 1 1 3 4
7 5 4 5 6 7 5 4 6 5 3 6 8 8 10 7 1 -0 3 6 7 7 5 4 6 10 8 0 -5 -3 -2 -4 2 13 17 16 15 11 6 5 3 1
7 6 8 11 11 10 10 9 7 6 6 6 6 8 9 7 10 16 15 13 12 5 -1 1 4 4 1 -4 -3 4 12 12 6 5 10 14 14 13 12 11 9 7
6 8 12 14 11 8 9 6 -1 -1 4 5 3 9 15 12 10 11 8 7 7 4 2 5 7 6 6 7 10 12 9 3 1 4 9 9 9 10 10 9 10 11
13 15 15 11 8 7 6 -0 -4 -2 4 6 6 9 8 1 -4 -3 -2 1 5 6 8 13 14 12 9 6 6 6 4 1 2 4 6 8 11 12 11 10 9 8
12 11 10 6 3 4 2 -1 3 10 14 13 10 8 4 -1 0 6 9 10 9 7 8 12 12 8 4 2 3 4 4 5 4 3 4 6 9 11 13 13 11 10
12 9 8 8 6 6 10 15 19 24 26 23 19 17 13 9 9 9 9 9 10 10 11 10 6 3 2 1 2 2 3 4 4 5 5 4 4 9 12 13 14 14
17 19 19 17 15 16 17 17 13 9 10 10 7 5 4 3 5 7 6 7 9 11 12 9 4 2 0 -1 0 2 4 6 7 6 5 4 5 8 10 10 12 14
11 13 14 12 12 13 9 5 3 3 5 7 5 5 7 9 10 10 9 10 11 11 11 9 5 1 -2 -3 1 6 8 10 11 9 5 5 7 10 10 9 10 11
11 6 12 15 12 11 10 10 13 14 14 15 16 16 15 15 13 11 10 10 10 9 9 7 4 0 -3 -2 4 9 10 10 11 9 5 6 10 12 11 10 11 12
5 9 20 25 16 9 9 13 15 15 13 12 12 11 10 10 8 7 6 6 6 6 7 6 5 1 -2 2 9 12 10 9 9 7 5 8 11 12 11 11 13 13
Height
5753 5753 5753 5753 5753 5753 5751 5752 5753 5753 5754 5755 5755 5756 5756 5756 5756 5756 5756 5756 5756 5756 5756 5756 5756 5757 5757 5757 5757 5757 5758 5758 5759 5759 5759 5759 5760 5760 5760 5760 5761 5761
5750 5750 5750 5750 5750 5750 5749 5749 5750 5751 5752 5753 5753 5754 5754 5754 5754 5754 5754 5754 5754 5754 5754 5754 5754 5754 5754 5754 5755 5755 5755 5755 5756 5756 5757 5757 5757 5757 5757 5758 5758 5759
5748 5748 5748 5748 5748 5748 5748 5748 5748 5748 5749 5750 5751 5752 5752 5752 5752 5752 5752 5752 5752 5752 5752 5752 5752 5752 5752 5753 5753 5753 5753 5753 5753 5754 5754 5754 5754 5755 5755 5756 5756 5757
5746 5746 5746 5746 5746 5746 5746 5746 5746 5746 5747 5748 5749 5749 5750 5750 5750 5750 5750 5750 5750 5750 5750 5750 5750 5750 5751 5751 5751 5752 5752 5752 5752 5752 5752 5752 5752 5753 5753 5754 5754 5755
5743 5744 5744 5744 5744 5744 5744 5745 5745 5745 5745 5746 5746 5747 5748 5748 5748 5748 5748 5748 5748 5748 5748 5748 5749 5749 5749 5749 5750 5750 5750 5750 5750 5750 5751 5751 5751 5751 5751 5752 5752 5753
5742 5742 5742 5742 5742 5742 5742 5743 5743 5743 5744 5744 5744 5745 5745 5745 5746 5746 5746 5746 5747 5747 5747 5747 5747 5747 5747 5747 5748 5748 5748 5748 5749 5749 5749 5749 5749 5749 5750 5750 5750 5751
5740 5740 5740 5740 5740 5740 5740 5740 5741 5741 5742 5742 5742 5742 5742 5743 5743 5743 5744 5744 5745 5746 5745 5745 5745 5745 5745 5745 5745 5745 5746 5746 5747 5747 5747 5747 5748 5748 5748 5748 5748 5749
5738 5738 5738 5738 5738 5738 5738 5738 5739 5739 5739 5740 5739 5739 5740 5740 5740 5741 5741 5742 5743 5743 5744 5743 5743 5743 5743 5743 5743 5743 5744 5744 5744 5745 5745 5746 5746 5746 5746 5746 5747 5747
5735 5735 5736 5735 5735 5736 5736 5736 5737 5737 5737 5737 5737 5737 5737 5737 5737 5738 5738 5739 5739 5740 5740 5741 5741 5741 5741 5741 5741 5741 5741 5742 5742 5742 5743 5743 5744 5744 5744 5744 5745 5745
5733 5733 5734 5733 5733 5734 5734 5734 5734 5734 5734 5735 5735 5735 5735 5734 5734 5735 5735 5735 5736 5736 5737 5738 5738 5739 5739 5739 5739 5739 5739 5740 5740 5740 5741 5741 5741 5742 5742 5742 5742 5742
5730 5731 5731 5731 5731 5731 5731 5731 5731 5731 5731 5732 5732 5732 5732 5732 5732 5732 5732 5733 5733 5733 5734 5734 5735 5736 5736 5737 5737 5737 5737 5737 5738 5738 5738 5739 5739 5739 5739 5739 5739 5740
5727 5727 5728 5728 5728 5728 5728 5728 5728 5728 5728 5728 5728 5729 5729 5729 5730 5730 5730 5730 5730 5730 5731 5731 5732 5732 5733 5733 5734 5734 5735 5735 5735 5735 5736 5736 5736 5736 5736 5736 5736 5737
5723 5724 5724 5725 5725 5725 5724 5724 5724 5725 5725 5726 5726 5726 5726 5726 5727 5727 5727 5727 5727 5727 5728 5728 5728 5729 5729 5729 5730 5731 5731 5732 5732 5732 5732 5732 5733 5733 5733 5733 5733 5733
5719 5720 5720 5721 5721 5721 5721 5721 5721 5721 5722 5723 5723 5723 5723 5723 5723 5723 5723 5724 5724 5724 5724 5724 5724 5724 5725 5725 5726 5726 5727 5728 5728 5728 5728 5729 5729 5729 5730 5730 5730 5730
5714 5715 5716 5716 5716 5716 5716 5717 5718 5718 5718 5719 5719 5718 5718 5719 5719 5720 5720 5721 5721 5720 5721 5720 5720 5720 5721 5721 5721 5722 5723 5724 5724 5724 5724 5725 5725 5725 5726 5726 5726 5727
5709 5710 5711 5711 5711 5711 5712 5713 5714 5713 5714 5715 5714 5714 5714 5714 5715 5716 5717 5717 5716 5716 5717 5718 5717 5717 5717 5717 5717 5718 5719 5719 5719 5720 5720 5720 5720 5720 5721 5721 5722 5722
5704 5704 5705 5706 5706 5706 5707 5708 5709 5708 5709 5709 5710 5709 5709 5710 5711 5712 5712 5712 5712 5712 5714 5714 5714 5713 5713 5713 5713 5714 5715 5715 5715 5715 5715 5715 5716 5716 5716 5716 5717 5717
5698 5699 5699 5700 5700 5701 5702 5703 5703 5704 5704 5705 5705 5705 5704 5705 5706 5707 5707 5707 5708 5708 5709 5710 5709 5709 5709 5710 5709 5710 5710 5710 5710 5711 5711 5711 5711 5711 5711 5711 5711 5712
5691 5692 5693 5693 5694 5694 5696 5697 5698 5698 5698 5699 5701 5701 5700 5699 5700 5701 5702 5703 5703 5703 5704 5704 5705 5705 5705 5705 5704 5705 5705 5706 5706 5707 5707 5706 5706 5706 5706 5706 5706 5706
5684 5685 5686 5686 5687 5688 5689 5691 5691 5692 5692 5694 5695 5695 5694 5694 5695 5696 5697 5698 5698 5698 5698 5698 5699 5700 5700 5700 5700 5700 5701 5701 5701 5701 5701 5701 5701 5701 5700 5700 5700 5700
5678 5679 5679 5680 5681 5681 5682 5683 5684 5685 5685 5687 5688 5688 5687 5688 5689 5690 5691 5692 5692 5693 5693 5693 5694 5694 5695 5695 5696 5696 5696 5696 5696 5696 5695 5695 5695 5695 5695 5695 5695 5694
5672 5672 5673 5674 5675 5675 5675 5675 5676 5676 5678 5679 5680 5680 5681 5681 5682 5683 5684 5685 5686 5686 5687 5687 5688 5688 5689 5689 5690 5690 5690 5690 5690 5689 5689 5689 5689 5689 5689 5689 5689 5689
5665 5666 5667 5667 5668 5668 5668 5668 5669 5669 5671 5672 5673 5674 5674 5675 5675 5676 5677 5678 5679 5680 5680 5681 5682 5683 5683 5684 5684 5684 5683 5683 5683 5683 5682 5682 5682 5683 5683 5683 5683 5683
5659 5659 5659 5660 5660 5660 5661 5661 5662 5663 5664 5665 5666 5667 5667 5668 5668 5669 5670 5671 5672 5673 5674 5675 5676 5676 5677 5677 5677 5677 5677 5677 5676 5676 5676 5676 5676 5676 5676 5677 5677 5676
5652 5652 5652 5653 5653 5653 5654 5654 5654 5655 5656 5657 5658 5659 5660 5660 5661 5662 5663 5664 5665 5666 5667 5668 5669 5669 5669 5669 5670 5670 5670 5670 5670 5670 5670 5670 5670 5670 5670 5670 5670 5669
5645 5645 5646 5646 5647 5647 5647 5648 5648 5649 5650 5651 5652 5652 5653 5654 5654 5655 5656 5657 5658 5659 5660 5661 5661 5662 5662 5662 5662 5663 5663 5663 5664 5664 5664 5664 5664 5663 5663 5663 5662 5662